Temperature
4 4 3 3 3 3 3 2 2 2 2 3 3 3 3 3 3 3 3 3 3 3 3 3 3 3 3 3 3 4 4 4 4 4 4 4 5 5
3 3 3 3 3 3 2 2 2 2 1 2 2 2 2 2 2 2 2 3 3 3 3 3 3 3 3 3 3 3 3 4 4 4 4 4 4 5
3 3 3 3 3 2 2 2 2 2 1 2 2 2 2 2 2 2 2 2 2 2 2 2 2 3 3 3 3 3 3 3 4 4 4 4 4 5
3 3 3 2 2 2 2 2 2 1 1 1 2 2 2 2 2 2 2 2 2 2 2 2 2 2 2 2 3 3 3 3 3 4 4 4 4 4
2 2 2 2 2 2 2 2 1 1 1 1 1 1 1 1 1 2 2 2 2 2 2 2 2 2 2 2 2 3 3 3 3 3 4 4 4 4
2 2 2 2 1 1 1 1 1 1 1 1 1 1 1 1 1 1 1 2 2 2 2 2 2 2 2 2 2 2 3 3 3 3 3 3 3 3
2 1 1 1 1 1 1 1 1 1 1 1 0 0 1 1 1 1 1 1 1 2 2 2 1 1 2 2 2 2 2 3 3 3 3 3 3 3
1 1 1 1 1 1 1 1 0 0 0 0 0 0 0 0 0 1 1 0 1 1 1 1 1 1 1 2 2 2 2 2 2 2 2 3 3 3
1 1 1 1 1 1 1 0 0 0 0 -0 -0 -0 -0 -0 -0 0 0 0 0 1 1 1 1 1 1 1 2 2 2 2 2 2 2 2 2 2
0 0 -0 -0 0 0 0 0 0 0 -0 -0 -0 -0 -0 -0 -0 -0 0 0 0 0 0 0 1 1 1 1 1 1 1 1 1 1 1 1 2 2
-0 -0 -0 -1 -0 -1 -0 -0 -0 -0 -0 -0 -0 -0 -0 -0 -0 -0 -0 -0 0 0 0 -0 0 0 1 1 1 1 1 1 1 1 1 1 1 1
-0 -0 -1 -1 -1 -1 -1 -1 -1 -1 -1 -0 -0 -0 0 0 0 -0 -0 -0 -0 -0 -0 -0 -0 -0 -0 0 0 0 0 0 0 0 1 1 1 1
-1 -1 -1 -1 -1 -1 -1 -1 -1 -1 -1 -1 -1 -0 -0 0 -0 -0 -0 -0 -0 -0 -0 -1 -0 -1 -1 -1 -0 -0 -0 -0 -0 -0 0 0 0 0
-1 -1 -1 -1 -1 -1 -1 -1 -1 -1 -1 -1 -1 -1 -0 -0 -0 -0 -0 -0 -0 -0 -1 -1 -1 -1 -1 -1 -1 -1 -1 -0 -0 -0 -0 -0 -0 -0
-2 -2 -2 -2 -2 -1 -1 -2 -2 -1 -1 -1 -1 -1 -1 -1 -1 -1 -1 -1 -1 -1 -1 -1 -1 -1 -1 -1 -1 -1 -1 -1 -1 -1 -1 -1 -0 -0
-2 -2 -2 -2 -2 -2 -2 -2 -2 -2 -2 -2 -2 -1 -1 -1 -1 -1 -1 -1 -1 -1 -1 -1 -1 -1 -1 -1 -1 -1 -1 -1 -1 -1 -1 -1 -1 -1
-2 -2 -2 -2 -2 -2 -2 -2 -2 -2 -2 -2 -2 -2 -2 -1 -1 -1 -1 -1 -1 -1 -1 -1 -1 -1 -1 -1 -1 -1 -1 -1 -1 -1 -1 -1 -1 -1
-3 -3 -3 -3 -3 -3 -3 -3 -3 -3 -3 -2 -2 -2 -2 -2 -2 -2 -2 -2 -2 -1 -1 -1 -1 -1 -1 -1 -1 -1 -1 -2 -2 -2 -1 -1 -1 -1
-3 -3 -3 -3 -3 -3 -3 -3 -3 -3 -3 -3 -2 -2 -2 -2 -2 -2 -2 -2 -2 -2 -2 -2 -1 -1 -1 -2 -2 -2 -2 -2 -2 -2 -2 -2 -2 -1
-4 -4 -4 -4 -4 -4 -3 -3 -3 -3 -3 -3 -3 -3 -2 -2 -2 -2 -2 -2 -2 -2 -2 -2 -2 -2 -2 -2 -2 -2 -2 -2 -2 -2 -2 -2 -2 -1
-4 -4 -4 -4 -4 -4 -4 -3 -3 -3 -3 -3 -3 -3 -3 -2 -2 -2 -2 -2 -2 -2 -2 -2 -2 -2 -2 -2 -2 -3 -3 -3 -2 -2 -2 -2 -2 -2
-5 -4 -4 -4 -4 -4 -4 -4 -3 -3 -3 -3 -3 -3 -3 -3 -2 -2 -2 -2 -2 -2 -2 -2 -2 -2 -2 -2 -3 -3 -3 -3 -2 -2 -2 -2 -2 -2
-5 -5 -4 -4 -4 -4 -4 -4 -4 -3 -3 -3 -3 -3 -3 -3 -3 -2 -2 -2 -2 -2 -2 -2 -2 -3 -3 -3 -3 -3 -3 -3 -3 -2 -2 -2 -2 -2
Wind_Speed
5 6 6 6 5 5 5 5 6 9 10 7 4 5 7 9 14 13 13 17 19 20 19 19 19 19 18 19 20 21 20 21 20 20 21 22 22 22
4 5 6 6 5 5 5 5 6 7 10 7 6 7 8 11 15 13 13 18 18 18 19 19 19 18 18 19 20 20 19 19 19 19 19 20 20 20
6 6 7 7 6 5 5 5 6 6 10 10 7 7 7 9 11 11 12 11 12 17 18 18 17 17 17 17 17 17 16 17 17 17 18 18 18 18
7 7 8 7 7 6 5 6 6 6 8 11 9 7 8 9 9 10 10 10 10 15 16 16 16 15 16 17 16 16 15 15 15 14 14 14 15 14
7 8 8 8 8 7 7 7 6 7 6 8 10 8 7 8 8 9 9 7 9 12 13 14 14 15 15 16 16 14 14 13 13 12 12 12 12 11
7 8 8 8 9 9 7 7 7 7 7 7 8 8 7 7 6 7 9 6 7 8 10 11 13 14 14 15 15 14 12 11 11 11 10 10 9 9
7 7 8 10 12 10 8 7 6 6 7 7 7 7 8 7 7 6 8 8 7 4 6 7 7 7 9 12 12 12 11 10 10 10 9 8 8 8
8 8 8 9 11 13 14 13 10 8 7 7 7 8 9 8 7 7 7 7 6 3 4 7 5 6 7 7 10 10 10 10 9 8 8 8 8 8
7 7 8 9 11 8 11 12 11 12 11 8 8 9 9 8 8 8 7 7 7 5 5 6 5 5 6 8 10 9 9 9 8 8 9 9 9 9
7 7 8 9 9 9 8 8 7 7 8 7 7 9 8 8 7 7 7 6 5 4 2 4 5 5 6 6 8 9 9 9 9 9 10 10 10 9
6 7 7 8 12 12 8 7 7 7 8 9 10 11 12 12 9 5 5 4 5 5 2 2 3 4 4 3 6 9 10 10 10 10 10 10 10 9
5 6 9 9 12 11 6 6 7 7 7 7 8 9 8 8 8 4 4 4 4 4 2 2 3 3 3 3 3 5 6 8 10 11 11 11 10 6
5 5 6 11 11 11 8 5 8 7 5 5 5 5 5 5 5 4 3 3 3 3 3 2 2 2 1 2 3 3 4 4 5 6 9 11 11 8
5 5 6 10 10 10 8 8 9 7 3 4 4 5 5 5 5 4 4 3 2 3 3 2 1 1 1 2 2 3 4 4 4 5 5 8 9 10
5 7 8 9 9 7 7 9 7 4 3 3 4 4 4 4 4 4 4 3 4 4 3 2 1 1 1 1 1 2 2 3 4 4 4 5 5 5
5 7 8 8 6 6 7 5 4 3 3 3 4 4 4 3 3 3 3 3 3 4 5 5 4 3 2 2 1 2 3 2 4 4 4 4 5 5
5 4 4 4 4 4 4 4 3 3 3 3 3 3 3 3 3 3 2 2 2 3 4 5 5 4 3 2 2 3 3 3 3 4 4 5 5 5
5 3 4 4 4 4 4 4 4 4 3 3 3 3 3 3 3 3 2 2 2 3 3 2 3 4 4 4 4 2 3 3 3 4 4 4 5 5
3 3 3 3 4 4 4 4 4 4 3 3 3 2 2 2 2 2 2 2 2 3 2 2 3 3 4 3 4 5 3 3 4 4 4 3 3 4
3 3 3 3 4 4 4 4 4 3 3 3 3 2 2 2 1 1 2 2 2 3 3 3 3 3 2 1 1 4 6 4 3 3 3 3 3 4
4 3 3 3 3 3 3 3 3 3 3 2 2 2 1 1 1 1 1 3 3 3 3 3 3 3 2 2 2 3 4 7 5 2 3 3 3 4
4 4 4 4 4 3 3 3 2 2 2 2 2 2 1 1 1 1 1 2 2 2 3 3 3 3 3 3 3 3 4 5 7 9 7 4 1 2
4 4 4 4 4 3 3 3 2 2 2 2 1 1 1 1 0 1 2 2 2 3 3 3 3 3 3 3 3 3 4 5 5 5 6 9 9 7
Wind_Direction
279 282 281 279 274 268 261 260 276 294 295 289 290 283 294 296 297 297 295 298 302 303 305 305 303 301 300 301 299 296 295 294 291 286 283 283 282 282
285 288 289 285 284 276 267 266 262 270 284 288 289 294 299 302 303 302 296 300 301 302 305 306 306 303 304 304 303 300 295 295 293 289 286 287 286 285
297 293 291 292 287 283 278 273 271 269 281 291 288 295 294 297 303 302 296 293 296 300 304 305 306 308 309 310 311 309 307 305 300 292 290 291 293 290
293 291 290 295 292 286 279 275 275 270 274 290 297 299 295 296 296 299 303 302 297 301 307 308 309 312 313 314 315 314 312 310 308 304 301 298 299 301
286 287 289 292 292 290 282 280 280 280 272 282 292 294 295 298 302 302 300 298 304 306 311 316 315 317 317 319 321 318 314 312 314 315 313 308 309 313
284 283 284 283 282 285 284 279 282 284 281 281 288 294 296 299 302 305 310 312 311 311 314 315 318 321 321 324 327 326 323 321 321 321 322 324 328 336
293 289 288 290 291 289 290 287 284 283 287 289 292 298 302 309 307 301 304 312 309 305 318 319 319 320 319 325 330 333 332 333 333 334 336 344 350 350
296 299 300 295 299 300 296 295 293 287 287 288 292 296 299 301 302 303 304 312 309 319 323 316 324 321 323 325 334 338 338 343 347 355 7 13 8 7
286 294 300 303 307 297 295 296 293 292 287 284 285 287 292 294 297 298 299 300 294 306 321 308 322 320 324 331 343 352 355 359 12 22 23 20 22 24
283 285 288 295 298 300 298 295 292 292 291 286 277 282 287 290 285 283 283 291 293 300 312 299 314 316 323 330 346 0 8 12 17 19 23 27 24 21
287 288 291 288 301 307 305 298 299 299 303 298 297 299 301 303 303 303 304 305 306 308 317 296 305 324 331 344 359 13 16 17 20 22 24 23 20 17
296 294 297 302 309 311 305 299 299 303 312 316 317 319 315 313 315 300 281 283 295 300 313 324 309 334 337 344 356 1 6 13 16 18 20 21 18 18
298 300 300 310 313 316 316 304 298 310 313 314 316 320 323 325 324 318 300 274 273 281 295 321 317 335 330 329 352 3 5 1 1 7 15 20 17 17
293 296 303 314 316 317 320 321 323 327 321 320 322 326 330 330 329 331 329 328 306 275 290 307 302 313 343 356 344 349 354 356 6 9 5 10 13 15
298 306 313 318 323 325 328 329 332 329 324 323 322 319 316 312 320 332 343 355 10 12 1 6 34 0 50 57 1 350 350 357 7 10 6 4 3 2
314 317 324 327 331 329 330 334 336 327 321 313 314 318 322 330 337 337 345 355 29 28 24 30 39 66 70 50 35 356 355 350 356 360 1 8 7 10
319 322 331 334 337 337 338 337 336 337 337 331 330 330 333 340 341 346 355 10 35 29 23 24 29 47 60 53 43 24 16 15 6 2 10 14 11 8
328 320 321 322 322 324 325 327 329 330 329 328 331 331 331 340 344 352 10 32 45 38 25 11 18 33 37 39 31 18 17 16 4 5 14 21 13 5
325 313 311 310 311 313 313 315 317 319 322 324 324 323 331 340 347 359 14 41 55 52 31 13 20 46 50 29 6 18 25 10 7 14 15 20 11 354
322 309 306 305 305 305 305 308 311 317 322 322 323 328 334 340 353 4 19 45 62 59 39 28 29 29 47 38 2 0 5 6 15 18 11 8 5 356
311 308 305 303 301 301 299 298 299 306 313 316 323 329 336 357 359 10 37 53 61 62 51 27 8 11 38 56 50 21 6 6 11 4 358 4 6 13
304 303 304 302 299 296 294 294 296 304 310 314 322 330 343 356 359 61 67 67 68 68 60 39 23 27 44 64 61 31 14 5 13 21 19 12 4 15
304 302 301 299 299 296 291 285 286 291 296 302 315 335 353 354 40 86 77 76 87 82 72 59 45 42 45 55 62 43 17 5 8 22 24 27 41 47
Height
1478 1475 1473 1471 1468 1466 1464 1461 1458 1450 1443 1442 1440 1438 1436 1433 1429 1426 1422 1419 1415 1412 1409 1405 1402 1399 1396 1394 1391 1389 1386 1383 1381 1378 1377 1376 1374 1373
1473 1471 1468 1466 1463 1461 1459 1457 1454 1450 1442 1438 1437 1434 1431 1428 1425 1422 1418 1414 1411 1408 1404 1400 1397 1394 1391 1388 1385 1382 1380 1377 1374 1372 1370 1368 1367 1365
1468 1466 1463 1461 1458 1456 1454 1451 1449 1446 1440 1434 1433 1430 1427 1423 1419 1416 1412 1409 1406 1403 1399 1396 1393 1390 1387 1383 1380 1377 1374 1371 1368 1366 1363 1362 1361 1359
1464 1461 1459 1456 1454 1451 1449 1446 1444 1441 1437 1431 1428 1425 1422 1419 1415 1412 1408 1405 1402 1399 1395 1392 1389 1386 1382 1379 1375 1372 1368 1365 1363 1360 1359 1357 1356 1353
1459 1457 1454 1452 1448 1446 1444 1441 1439 1437 1434 1429 1424 1421 1418 1415 1411 1407 1404 1400 1397 1394 1391 1388 1385 1382 1378 1375 1371 1367 1364 1362 1359 1357 1355 1353 1352 1349
1455 1453 1450 1447 1444 1442 1439 1437 1434 1432 1429 1425 1421 1417 1414 1411 1408 1403 1399 1396 1393 1391 1388 1385 1382 1378 1375 1371 1367 1364 1361 1358 1356 1354 1352 1350 1348 1346
1450 1448 1446 1443 1440 1438 1435 1432 1430 1427 1424 1421 1417 1413 1410 1407 1404 1400 1397 1393 1390 1387 1384 1381 1379 1375 1372 1368 1365 1362 1359 1356 1354 1352 1350 1348 1346 1344
1446 1443 1441 1438 1435 1433 1430 1428 1426 1423 1420 1417 1414 1410 1407 1404 1401 1398 1394 1391 1386 1385 1382 1378 1376 1372 1369 1366 1363 1360 1357 1355 1353 1351 1349 1347 1346 1344
1441 1439 1436 1433 1431 1428 1425 1423 1421 1419 1417 1414 1410 1407 1404 1401 1398 1394 1392 1389 1385 1383 1380 1376 1373 1370 1368 1365 1362 1359 1357 1355 1353 1351 1349 1347 1345 1344
1438 1435 1432 1429 1426 1424 1421 1418 1416 1414 1412 1410 1407 1404 1401 1398 1395 1392 1389 1386 1383 1381 1379 1374 1371 1368 1366 1364 1361 1359 1357 1355 1353 1351 1350 1348 1346 1344
1433 1431 1428 1425 1423 1420 1417 1414 1411 1409 1408 1406 1403 1400 1397 1394 1391 1389 1386 1383 1379 1377 1376 1373 1370 1367 1365 1363 1361 1359 1357 1355 1353 1352 1350 1349 1347 1345
1429 1426 1424 1422 1419 1416 1414 1410 1407 1405 1403 1401 1398 1396 1393 1390 1388 1386 1383 1381 1378 1375 1374 1372 1370 1368 1365 1363 1361 1359 1358 1356 1355 1353 1352 1350 1348 1346
1424 1422 1420 1417 1415 1413 1410 1408 1405 1403 1400 1397 1394 1392 1389 1386 1384 1382 1380 1378 1376 1374 1373 1372 1369 1368 1366 1364 1361 1360 1359 1357 1356 1354 1353 1352 1350 1348
1421 1418 1416 1414 1412 1409 1407 1405 1403 1400 1397 1394 1392 1389 1386 1384 1381 1380 1378 1376 1375 1373 1372 1371 1369 1368 1366 1364 1362 1361 1360 1359 1357 1356 1354 1353 1351 1350
1417 1415 1413 1411 1408 1406 1404 1402 1400 1397 1395 1392 1389 1387 1385 1383 1380 1378 1376 1375 1374 1372 1371 1370 1369 1368 1367 1366 1364 1362 1361 1360 1359 1357 1356 1354 1353 1351
1414 1411 1409 1407 1405 1403 1401 1399 1397 1395 1393 1390 1388 1386 1384 1382 1380 1378 1376 1375 1373 1372 1372 1371 1370 1370 1368 1367 1366 1365 1363 1362 1361 1359 1357 1356 1355 1353
1411 1408 1406 1404 1402 1400 1398 1397 1395 1393 1391 1389 1387 1385 1383 1382 1380 1378 1377 1376 1374 1373 1373 1373 1372 1371 1370 1370 1368 1367 1365 1364 1363 1361 1359 1357 1356 1355
1409 1406 1404 1402 1400 1398 1397 1395 1393 1391 1390 1388 1386 1384 1383 1381 1380 1379 1378 1377 1376 1375 1375 1374 1373 1372 1372 1371 1371 1369 1367 1366 1365 1363 1362 1359 1358 1357
1406 1404 1402 1400 1399 1397 1395 1394 1392 1391 1389 1387 1385 1384 1383 1381 1380 1379 1378 1378 1377 1377 1377 1376 1375 1374 1372 1372 1373 1372 1370 1368 1367 1365 1364 1362 1360 1359
1403 1402 1400 1399 1397 1395 1394 1393 1391 1390 1388 1386 1385 1384 1383 1381 1381 1380 1379 1379 1379 1378 1378 1378 1377 1376 1375 1375 1374 1374 1373 1371 1369 1367 1366 1364 1363 1363
1401 1400 1398 1397 1395 1394 1393 1391 1390 1389 1387 1386 1384 1383 1382 1382 1381 1381 1381 1381 1380 1380 1379 1379 1379 1379 1378 1377 1376 1375 1375 1374 1372 1370 1368 1366 1365 1364
1399 1397 1396 1394 1393 1392 1391 1389 1388 1387 1386 1385 1384 1383 1382 1382 1382 1382 1382 1382 1382 1382 1381 1382 1381 1381 1380 1379 1377 1377 1376 1375 1374 1373 1372 1370 1369 1367
1397 1395 1393 1392 1391 1390 1389 1388 1387 1386 1385 1384 1383 1383 1383 1383 1383 1383 1383 1383 1384 1384 1383 1383 1383 1382 1382 1381 1380 1379 1378 1377 1376 1375 1374 1374 1373 1372